Regional Weather Roundup
Issued by NWS

Home | Current Version | Previous Version | Graphics & Text | Print | Product List | Glossary On
Versions: 1 2 3 4 5 6 7 8 9 10 11 12 13 14 15 16 17 18 19 20 21 22 23 24 25 26 27 28 29 30 31 32 33 34 35 36 37 38 39 40 41 42 43 44 45 46 47 48 49 50
000
ASUS45 KCYS 272210
RWRWY

WYOMING REGIONAL WEATHER ROUNDUP
NATIONAL WEATHER SERVICE CHEYENNE WY
400 PM MDT WED MAY 27 2015

NOTE:  "FAIR" INDICATES FEW OR NO CLOUDS BELOW 12,000 FEET
WITH NO SIGNIFICANT WEATHER AND/OR OBSTRUCTIONS TO VISIBILITY.

WYZ001-272300-
YELLOWSTONE NATIONAL PARK

CITY           SKY/WX    TMP DP  RH WIND       PRES   REMARKS
LK YELLOWSTONE   N/A     52  33  48 MISG      30.13F
W YELLOWSTONE  NOT AVBL

$$
WYZ002>013-054>058-071-098>099-272300-
NORTHERN WYOMING

CITY           SKY/WX    TMP DP  RH WIND       PRES   REMARKS
JACKSON        CLOUDY    52  43  71 SW9G16    30.11F
CODY           CLOUDY    63  46  55 E8        29.97F
GREYBULL       FAIR      71  37  28 SW8       29.93F
WORLAND        FAIR      72  42  34 VRB5      29.93F
SHERIDAN       PTSUNNY   67  51  56 VRB6      29.95F
BUFFALO        FAIR      66  48  52 NE8G17    29.98F
GILLETTE       CLOUDY    67  53  61 N8        29.94S
HULETT         CLOUDY    61  54  77 NE10      29.96R
NEWCASTLE      FAIR      68  46  45 S10       29.97S

$$
WYZ014>020-022>026-101>103-272300-
CENTRAL WYOMING

CITY           SKY/WX    TMP DP  RH WIND       PRES   REMARKS
BIG PINEY      FAIR      53  41  63 CALM      30.12F
PINEDALE       FAIR      52  41  66 CALM      30.13F
DUBOIS         CLOUDY    50  36  57 N17G24    30.09R
LANDER         CLOUDY    65  43  44 NE8       29.96F
RIVERTON       FAIR      67  36  31 CALM      29.98F
CASPER         FAIR      70  41  34 W14       29.98F
DOUGLAS        FAIR      74  43  32 NW10      29.98F

$$
WYZ021-027>030-104>119-272300-
SOUTHERN WYOMING

CITY           SKY/WX    TMP DP  RH WIND       PRES   REMARKS
EVANSTON       FAIR      59  40  49 W16G24    30.12F
KEMMERER       MOCLDY    59  37  44 W16G22    30.13S
FORT BRIDGER   PTCLDY    57  45  62 SW15G23   30.16F
ROCK SPRINGS   TSTM      50  42  74 W15       30.13R
RAWLINS        FAIR      64  39  39 SW15G23   30.10F
SARATOGA       FAIR      64  37  36 SW8       30.12F
LARAMIE        FAIR      64  37  36 SW9       30.10F
CHEYENNE       PTSUNNY   65  43  44 S7        30.05F
TORRINGTON     FAIR      70  50  49 SE8       29.96F
PINE BLUFFS    FAIR      66  45  45 CALM      30.03F

$$



USA.gov is the U.S. government's official web portal to all federal, state and local government web resources and services.